Regional Weather Roundup
Issued by NWS

Home | Current Version | Previous Version | Graphics & Text | Print | Product List | Glossary On
Versions: 1 2 3 4 5 6 7 8 9 10 11 12 13 14 15 16 17 18 19 20 21 22 23 24 25 26 27 28 29 30 31 32 33 34 35 36 37 38 39 40 41 42 43 44 45 46 47 48 49 50
000
ASUS43 KMPX 240410
RWRMN
WEATHER ROUNDUP FOR MINNESOTA
NATIONAL WEATHER SERVICE TWIN CITIES/CHANHASSEN MN
1100 PM CDT WED JUL 23 2014


NOTE: "FAIR" INDICATES FEW OR NO CLOUDS BELOW 12,000 FEET WITH NO
SIGNIFICANT WEATHER AND/OR OBSTRUCTIONS TO VISIBILITY. N/A MEANS
CURRENT SKY AND/OR WEATHER CONDITIONS ARE NOT AVAILABLE.

MNZ060>063-068>070-240500-
   Twin Cities Metro

CITY           SKY/WX    TMP DP  RH WIND       PRES   REMARKS
TWIN CITIES    CLEAR     70  54  56 N5        30.15F
ST PAUL        CLEAR     69  55  60 NE3       30.15F
CRYSTAL        CLEAR     68  55  63 CALM      30.15S
BLAINE         CLEAR     66  59  77 CALM      30.16S
LAKEVILLE      CLEAR     59  55  88 CALM      30.16S
EDEN PRAIRIE   CLEAR     67  57  70 N3        30.15S
SOUTH ST PAUL  CLEAR     69  53  56 NW3       30.15S
LAKE ELMO      FAIR      61  57  88 CALM      30.17S
$$
MNZ001>005-007-008-013>017-022>024-027-028-240500-
   Northwest Minnesota

CITY           SKY/WX    TMP DP  RH WIND       PRES   REMARKS
BEMIDJI        CLEAR     58  54  86 CALM      30.19S
HALLOCK        CLEAR     63  55  77 NE3       30.17F
ROSEAU         CLEAR     57  52  82 E7        30.19F
WARROAD        CLEAR     57  54  88 CALM      30.20F
THIEF RVR FALL CLEAR     61  55  82 CALM      30.19S
CROOKSTON      CLEAR     64  57  77 CALM      30.18F
FOSSTON        CLEAR     57  54  88 CALM      30.20S
DETROIT LAKES  CLEAR     64  57  77 NE3       30.20S
MOORHEAD       CLEAR     66  63  88 CALM      30.18S
PARK RAPIDS    CLEAR     59  56  89 CALM      30.19S
$$
MNZ006-009>011-018-025>026-240500-
   North Central Minnesota

CITY           SKY/WX    TMP DP  RH WIND       PRES   REMARKS
BAUDETTE       PTCLDY    58  54  86 CALM      30.20F
FLAG ISLAND    CLEAR     66  46  48 CALM      30.18F
INTL FALLS     CLEAR     52  51  97 CALM      30.19S
WASKISH        CLEAR     57  52  82 CALM      30.19S
BIG FORK       CLEAR     54  52  94 CALM      30.20F
LONGVILLE      CLEAR     55  55 100 CALM      30.18S
GRAND RAPIDS   MOCLDY    57  54  88 CALM      30.19S
CRANE LAKE     CLEAR     50  48  93 CALM      30.21S
ORR            CLEAR     52  48  87 CALM      30.18S
COOK           CLEAR     54  52  94 CALM      30.21R
$$
MNZ012-019>021-037-240500-
   Northeast Minnesota

CITY           SKY/WX    TMP DP  RH WIND       PRES   REMARKS
DULUTH         PTCLDY    60  53  77 E3        30.18F
ELY            CLEAR     52  48  87 CALM      30.20S
HIBBING        CLEAR     54  51  90 NW3       30.19F
EVELETH        CLEAR     52  50  93 CALM      30.21S
DULUTH HARBOR  PTCLDY    55  54  94 NE6       30.19S
TWO HARBORS    CLEAR     54  48  82 CALM      30.17S
SILVER BAY     CLEAR     52  52 100 CALM      30.17F
GRAND MARAIS     N/A     52  50  93 CALM      30.18S
G MARAIS ARPRT CLEAR     48  46  93 NW3       30.21S
$$
MNZ029>031-032-039>041-046>048-054>057-064-240500-
   West Central Minnesota

CITY           SKY/WX    TMP DP  RH WIND       PRES   REMARKS
FERGUS FALLS   CLEAR     66  57  72 E3        30.18R
WHEATON        CLEAR     63  59  88 CALM      30.19S
MORRIS         CLEAR     63  59  88 E3        30.17S
ALEXANDRIA     CLEAR     66  57  72 E6        30.19F
ELBOW LAKE     FAIR      67  60  79 NE3       30.18R
WADENA         CLEAR     59  55  88 CALM      30.19S
GLENWOOD       CLEAR     66  57  72 NE3       30.19S
APPLETON       CLEAR     64  57  77 CALM      30.17S
BENSON         CLEAR     61  57  88 CALM      30.18S
ORTONVILLE     CLEAR     68  57  68 SE3       30.17S
MADISON        CLEAR     66  59  77 CALM      30.18R
WILLMAR        FAIR      66  55  68 CALM      30.20R
$$
MNZ033>034-036-042>043-049>051-058-059-240500-
   Central Minnesota

CITY           SKY/WX    TMP DP  RH WIND       PRES   REMARKS
ST CLOUD       CLEAR     62  55  77 CALM      30.17S
SAUK CENTRE    FAIR      63  57  81 NW3       30.19R
PAYNESVILLE    CLEAR     58  56  91 CALM      30.19R
AITKIN         CLEAR     57  52  82 CALM      30.17S
PINE RIVER     CLEAR     57  55  94 CALM      30.21S
BRAINERD       CLEAR     58  56  93 CALM      30.18F
STAPLES        CLEAR     61  57  88 CALM      30.19S
LONG PRAIRIE   FAIR      61  55  82 CALM      30.19F
LITTLE FALLS   CLEAR     59  55  88 CALM      30.18S
LITCHFIELD       N/A     64  57  77 CALM      30.18S
BUFFALO        CLEAR     63  56  76 CALM      30.18S
MAPLE LAKE     CLEAR     61  56  84 CALM      30.18S
$$
MNZ037-044-045-052-053-240500-
   East Central Minnesota

CITY           SKY/WX    TMP DP  RH WIND       PRES   REMARKS
PRINCETON      CLEAR     61  57  88 CALM      30.17S
MORA           CLEAR     57  54  88 CALM      30.19S
CAMBRIDGE      CLEAR     61  52  72 CALM      30.15S
RUSH CITY      PTCLDY    59  56  90 CALM      30.17S
MOOSE LAKE     CLEAR     55  54  94 NE3       30.16S
HINCKLEY       FAIR      59  59 100 CALM      30.17S
CLOQUET        CLEAR     57  54  88 CALM      30.19S
MCGREGOR       MOCLDY    61  57  88 CALM      30.19R
$$
MNZ071>073-080-081-089-090-097-098-240500-
   Southwest Minnesota

CITY           SKY/WX    TMP DP  RH WIND       PRES   REMARKS
MONTEVIDEO     CLEAR     64  57  77 CALM      30.18S
GRANITE FALLS  CLEAR     64  57  80 CALM      30.19S HAZE
CANBY          CLEAR     65  58  78 CALM      30.19S
MARSHALL       CLEAR     66  55  68 CALM      30.17S
REDWOOD FALLS  CLEAR     69  54  58 E3        30.17S
OLIVIA         CLEAR     63  54  72 CALM      30.17S
PIPESTONE      CLEAR     66  55  68 CALM      30.19S
WINDOM         CLEAR     63  55  77 NE3       30.19S
WORTHINGTON    CLEAR     63  55  77 CALM      30.20S
JACKSON        CLEAR     61  54  77 CALM      30.19S
TRACY          CLEAR     65  57  77 CALM      30.18S
SLAYTON        CLEAR     63  57  82 CALM      30.20S
$$
MNZ065>067-074>077-082>085-091>093-240500-
   South Central Minnesota

CITY           SKY/WX    TMP DP  RH WIND       PRES   REMARKS
MANKATO        CLEAR     66  52  59 NE5       30.17R
NEW ULM        CLEAR     70  54  56 CALM      30.17S
ST JAMES       CLEAR     64  55  72 CALM      30.18S
FAIRMONT       CLEAR     64  54  68 CALM      30.17S
GLENCOE        CLEAR     64  54  70 CALM      30.16S
FARIBAULT      CLEAR     61  54  77 CALM      30.17S
OWATONNA       CLEAR     59  54  82 CALM      30.17S
WASECA         CLEAR     61  52  72 CALM      30.18S
ALBERT LEA     CLEAR     63  59  88 CALM      30.17S
$$
MNZ078>079-086>088-094>096-240500-
   Southeast Minnesota

CITY           SKY/WX    TMP DP  RH WIND       PRES   REMARKS
ROCHESTER      CLEAR     65  54  67 E5        30.18S
RED WING       CLEAR     63  57  82 CALM      30.15S
STANTON        CLEAR     61  56  83 CALM      30.15S
DODGE CENTER   CLEAR     64  57  77 CALM      30.17F
WINONA         CLEAR     63  59  88 CALM      30.16S
AUSTIN         CLEAR     63  57  82 CALM      30.17S
PRESTON        CLEAR     65  59  79 CALM      30.18S
$$
ABBREVIATIONS USED IN REMARKS
   TC - TEMPERATURES IN CELSIUS
  WCI - WIND CHILL INDEX
   HX - HEAT INDEX
  VSB - VISIBILITY
$$



USA.gov is the U.S. government's official web portal to all federal, state and local government web resources and services.